Location: B?lite?ti
(46.2833°N, 22.7333°E)
Time: 17:23:37
(UTC+00:00)

CZ-2C R/B - Pass Details

Date: 24 January 2021
Orbit: 704 x 908 km, 98.1° (Epoch: 01 March)

Event Time Altitude Azimuth Distance (km) Brightness Sun altitude
Rises 16:26:35 0° 156° (SSE) 3,310 6.2 -11.2°
Reaches altitude 10° 16:28:52 10° 153° (SSE) 2,413 5.5 -11.6°
Maximum altitude 16:34:12 67° 72° (ENE) 926 3.2 -12.4°
Drops below altitude 10° 16:39:50 10° 352° (N) 2,550 5.6 -13.4°
Sets 16:42:18 0° 349° (N) 3,513 6.4 -13.8°
